| time (UTC) | temp C | wind direction | speed KPH | gust KPH | rain 1hr cm | rain 24hr cm | rain mn cm | humidity % | barometer mb |
| 20260507065055 | 8 | 318 | 3.2 | 6.4 | 0.00 | 0.20 | 0.00 | 86 | 1015.9 |
| 20260507064057 | 8 | 307 | 3.2 | 6.4 | 0.00 | 0.20 | 0.00 | 86 | 1015.9 |
| 20260507063054 | 8 | 306 | 1.6 | 3.2 | 0.00 | 0.23 | 0.00 | 87 | 1015.7 |
| 20260507062057 | 8 | 292 | 3.2 | 4.8 | 0.00 | 0.23 | 0.00 | 88 | 1015.7 |
| 20260507061058 | 8 | 280 | 3.2 | 4.8 | 0.00 | 0.23 | 0.00 | 90 | 1015.6 |
| 20260507060056 | 8 | 280 | 3.2 | 4.8 | 0.00 | 0.25 | 0.00 | 91 | 1015.5 |
| 20260507055052 | 7 | 284 | 3.2 | 4.8 | 0.00 | 0.28 | 0.00 | 92 | 1015.4 |
| 20260507053054 | 7 | 270 | 3.2 | 4.8 | 0.00 | 0.33 | 0.00 | 94 | 1015.3 |
| 20260507052057 | 7 | 257 | 3.2 | 4.8 | 0.00 | 0.38 | 0.00 | 95 | 1015.2 |
| 20260507051057 | 7 | 229 | 1.6 | 4.8 | 0.00 | 0.43 | 0.00 | 95 | 1015.1 |
| 20260507050056 | 7 | 257 | 3.2 | 4.8 | 0.00 | 0.43 | 0.00 | 95 | 1015.0 |
| 20260507045058 | 7 | 257 | 3.2 | 4.8 | 0.00 | 0.48 | 0.00 | 95 | 1014.9 |
| 20260507044058 | 7 | 249 | 4.8 | 6.4 | 0.00 | 0.51 | 0.00 | 95 | 1014.8 |
| 20260507043058 | 7 | 250 | 3.2 | 4.8 | 0.00 | 0.51 | 0.00 | 94 | 1014.7 |
| 20260507042059 | 7 | 277 | 0.0 | 0.0 | 0.00 | 0.53 | 0.00 | 95 | 1014.7 |
| 20260507041055 | 7 | 286 | 0.0 | 0.0 | 0.00 | 0.56 | 0.00 | 95 | 1014.6 |
| 20260507040058 | 7 | 302 | 1.6 | 3.2 | 0.00 | 0.58 | 0.00 | 95 | 1014.5 |
| 20260507035057 | 7 | 300 | 3.2 | 4.8 | 0.00 | 0.58 | 0.00 | 95 | 1014.5 |
| 20260507034056 | 7 | 247 | 3.2 | 4.8 | 0.00 | 0.61 | 0.00 | 94 | 1014.5 |
| 20260507033056 | 7 | 233 | 3.2 | 4.8 | 0.00 | 0.61 | 0.00 | 94 | 1014.5 |
| 20260507032058 | 7 | 240 | 3.2 | 4.8 | 0.00 | 0.61 | 0.00 | 94 | 1014.4 |
| 20260507031056 | 7 | 238 | 4.8 | 4.8 | 0.00 | 0.61 | 0.00 | 94 | 1014.3 |
| 20260507030056 | 7 | 231 | 3.2 | 4.8 | 0.00 | 0.64 | 0.00 | 93 | 1014.3 |
| 20260507025055 | 7 | 238 | 4.8 | 6.4 | 0.00 | 0.64 | 0.00 | 92 | 1014.2 |
| 20260507024055 | 7 | 265 | 4.8 | 6.4 | 0.00 | 0.64 | 0.00 | 91 | 1014.2 |
| 20260507023054 | 7 | 18 | 1.6 | 4.8 | 0.00 | 0.66 | 0.00 | 90 | 1014.2 |
| 20260507022057 | 7 | 5 | 3.2 | 4.8 | 0.00 | 0.66 | 0.00 | 91 | 1014.1 |
| 20260507021058 | 7 | 30 | 3.2 | 4.8 | 0.00 | 0.69 | 0.00 | 91 | 1014.0 |
| 20260507020057 | 7 | 30 | 4.8 | 8.0 | 0.00 | 0.71 | 0.00 | 91 | 1013.9 |
| 20260507015055 | 7 | 45 | 6.4 | 9.7 | 0.00 | 0.71 | 0.00 | 91 | 1013.8 |
| 20260507014057 | 7 | 48 | 8.0 | 11.3 | 0.00 | 0.71 | 0.00 | 91 | 1013.9 |
| 20260507013054 | 7 | 49 | 9.7 | 12.9 | 0.00 | 0.71 | 0.00 | 92 | 1013.9 |
| 20260507012053 | 7 | 47 | 8.0 | 12.9 | 0.00 | 0.74 | 0.00 | 93 | 1013.9 |
| 20260507011059 | 7 | 24 | 6.4 | 12.9 | 0.00 | 0.74 | 0.00 | 93 | 1013.9 |
| 20260507010100 | 7 | 4 | 6.4 | 9.7 | 0.00 | 0.76 | 0.00 | 94 | 1013.8 |
| 20260507005056 | 7 | 355 | 4.8 | 8.0 | 0.00 | 0.76 | 0.00 | 94 | 1013.8 |
| 20260507004058 | 7 | 340 | 4.8 | 6.4 | 0.00 | 0.79 | 0.00 | 94 | 1013.8 |
| 20260507003056 | 7 | 346 | 4.8 | 6.4 | 0.00 | 0.79 | 0.00 | 94 | 1013.7 |
| 20260507002057 | 7 | 348 | 4.8 | 6.4 | 0.00 | 0.84 | 0.00 | 94 | 1013.7 |
| 20260506235107 | 7 | 350 | 3.2 | 4.8 | 0.00 | 0.89 | 0.00 | 93 | 1013.6 |
| 20260506234106 | 7 | 357 | 3.2 | 4.8 | 0.00 | 0.91 | 0.00 | 93 | 1013.5 |
| 20260506233106 | 7 | 20 | 3.2 | 4.8 | 0.00 | 0.94 | 0.00 | 93 | 1013.4 |
| 20260506232105 | 7 | 9 | 4.8 | 8.0 | 0.00 | 0.97 | 0.00 | 93 | 1013.4 |
| 20260506231107 | 7 | 24 | 4.8 | 8.0 | 0.00 | 0.99 | 0.00 | 93 | 1013.4 |
| 20260506230107 | 7 | 355 | 4.8 | 6.4 | 0.00 | 0.99 | 0.00 | 92 | 1013.3 |
| 20260506225105 | 7 | 342 | 4.8 | 6.4 | 0.00 | 1.02 | 0.00 | 92 | 1013.3 |
| 20260506224107 | 7 | 337 | 4.8 | 6.4 | 0.00 | 1.07 | 0.00 | 92 | 1013.2 |
| 20260506223106 | 7 | 338 | 4.8 | 6.4 | 0.00 | 1.09 | 0.00 | 92 | 1013.1 |
| 20260506221105 | 7 | 337 | 8.0 | 9.7 | 0.00 | 1.09 | 0.00 | 91 | 1013.0 |
| 20260506220116 | 7 | 338 | 8.0 | 9.7 | 0.00 | 1.12 | 0.00 | 90 | 1012.9 |
| 20260506214112 | 7 | 331 | 8.0 | 11.3 | 0.00 | 1.17 | 1.12 | 88 | 1012.7 |
| 20260506213111 | 7 | 331 | 6.4 | 9.7 | 0.00 | 1.17 | 1.12 | 87 | 1012.7 |
| 20260506212114 | 7 | 358 | 4.8 | 9.7 | 0.00 | 1.19 | 1.12 | 86 | 1012.6 |
| 20260506211114 | 7 | 12 | 8.0 | 12.9 | 0.00 | 1.22 | 1.12 | 85 | 1012.5 |
| 20260506210113 | 7 | 14 | 9.7 | 17.7 | 0.00 | 1.24 | 1.12 | 85 | 1012.4 |
| 20260506205109 | 7 | 13 | 9.7 | 16.1 | 0.00 | 1.27 | 1.12 | 84 | 1012.3 |
| 20260506203111 | 8 | 6 | 9.7 | 14.5 | 0.00 | 1.30 | 1.12 | 82 | 1012.2 |
| 20260506202114 | 8 | 6 | 6.4 | 12.9 | 0.00 | 1.30 | 1.12 | 82 | 1012.1 |
| 20260506200112 | 8 | 20 | 6.4 | 9.7 | 0.00 | 1.35 | 1.12 | 80 | 1012.0 |
| 20260506195112 | 8 | 30 | 6.4 | 9.7 | 0.00 | 1.37 | 1.12 | 80 | 1011.8 |
| 20260506194113 | 9 | 19 | 8.0 | 12.9 | 0.00 | 1.37 | 1.12 | 79 | 1011.7 |
| 20260506193117 | 10 | 11 | 8.0 | 12.9 | 0.00 | 1.40 | 1.12 | 78 | 1011.6 |
| 20260506192113 | 10 | 23 | 6.4 | 11.3 | 0.00 | 1.42 | 1.12 | 80 | 1011.4 |
| 20260506191111 | 10 | 18 | 6.4 | 11.3 | 0.00 | 1.42 | 1.12 | 79 | 1011.4 |
| 20260506190112 | 10 | 22 | 6.4 | 9.7 | 0.00 | 1.45 | 1.12 | 78 | 1011.2 |
| 20260506185112 | 10 | 19 | 6.4 | 12.9 | 0.00 | 1.45 | 1.12 | 78 | 1011.1 |
| 20260506184104 | 10 | 23 | 6.4 | 9.7 | 0.00 | 1.47 | 1.12 | 78 | 1011.0 |
| 20260506183110 | 10 | 48 | 4.8 | 9.7 | 0.00 | 1.47 | 1.12 | 79 | 1010.9 |
| 20260506182113 | 10 | 45 | 6.4 | 9.7 | 0.00 | 1.50 | 1.12 | 79 | 1010.8 |
| 20260506181102 | 11 | 41 | 8.0 | 14.5 | 0.00 | 1.52 | 1.12 | 79 | 1010.6 |
| 20260506180111 | 11 | 36 | 8.0 | 14.5 | 0.00 | 1.55 | 1.12 | 78 | 1010.5 |
| 20260506175110 | 11 | 17 | 6.4 | 11.3 | 0.00 | 1.55 | 1.12 | 78 | 1010.3 |
| 20260506174106 | 11 | 12 | 6.4 | 14.5 | 0.00 | 1.57 | 1.12 | 79 | 1010.2 |
| 20260506173105 | 11 | 11 | 4.8 | 9.7 | 0.00 | 1.60 | 1.12 | 79 | 1010.1 |
| 20260506172110 | 11 | 8 | 4.8 | 6.4 | 0.00 | 1.60 | 1.12 | 80 | 1010.1 |
| 20260506171105 | 11 | 14 | 3.2 | 4.8 | 0.00 | 1.63 | 1.12 | 79 | 1009.9 |
| 20260506170100 | 11 | 23 | 6.4 | 9.7 | 0.00 | 1.65 | 1.12 | 80 | 1009.9 |
| 20260506165103 | 11 | 6 | 6.4 | 9.7 | 0.00 | 1.65 | 1.12 | 79 | 1009.9 |
| 20260506164058 | 11 | 314 | 9.7 | 14.5 | 0.00 | 1.65 | 1.12 | 79 | 1009.7 |
| 20260506163033 | 11 | 316 | 9.7 | 14.5 | 0.00 | 1.65 | 1.12 | 78 | 1009.7 |
| 20260506162104 | 11 | 316 | 11.3 | 16.1 | 0.00 | 1.65 | 1.12 | 78 | 1009.8 |
| 20260506161103 | 11 | 333 | 12.9 | 16.1 | 0.00 | 1.65 | 1.12 | 76 | 1009.7 |
| 20260506160033 | 11 | 334 | 12.9 | 16.1 | 0.00 | 1.65 | 1.12 | 76 | 1009.7 |
| 20260506155051 | 12 | 334 | 12.9 | 16.1 | 0.00 | 1.65 | 1.12 | 76 | 1009.7 |
| 20260506154045 | 12 | 333 | 11.3 | 19.3 | 0.00 | 1.65 | 1.12 | 77 | 1009.6 |
| 20260506153052 | 12 | 333 | 11.3 | 19.3 | 0.00 | 1.65 | 1.12 | 78 | 1009.6 |
| 20260506151023 | 11 | 330 | 6.4 | 9.7 | 0.00 | 1.65 | 1.12 | 82 | 1009.6 |
| 20260506145038 | 11 | 339 | 6.4 | 9.7 | 0.00 | 1.65 | 1.12 | 83 | 1009.6 |
| 20260506144051 | 11 | 339 | 6.4 | 9.7 | 0.00 | 1.65 | 1.12 | 86 | 1009.6 |
| 20260506143058 | 11 | 334 | 4.8 | 6.4 | 0.00 | 1.65 | 1.12 | 86 | 1009.7 |
| 20260506142041 | 11 | 327 | 6.4 | 8.0 | 0.00 | 1.65 | 1.12 | 86 | 1009.7 |
| 20260506141022 | 10 | 329 | 4.8 | 6.4 | 0.00 | 1.65 | 1.12 | 86 | 1009.8 |
| 20260506140107 | 10 | 329 | 4.8 | 6.4 | 0.00 | 1.65 | 1.12 | 85 | 1009.7 |
| 20260506135023 | 10 | 2 | 8.0 | 12.9 | 0.00 | 1.65 | 1.12 | 85 | 1009.7 |
| 20260506133059 | 10 | 25 | 6.4 | 11.3 | 0.00 | 1.65 | 1.12 | 84 | 1009.8 |
| 20260506132023 | 10 | 15 | 6.4 | 11.3 | 0.00 | 1.65 | 1.12 | 84 | 1009.8 |
| 20260506131100 | 10 | 15 | 6.4 | 11.3 | 0.00 | 1.65 | 1.12 | 83 | 1009.6 |
| 20260506130029 | 11 | 8 | 8.0 | 14.5 | 0.00 | 1.65 | 1.12 | 82 | 1009.6 |
| 20260506124022 | 10 | 354 | 12.9 | 19.3 | 0.00 | 1.65 | 1.12 | 82 | 1009.6 |
| 20260506123101 | 10 | 354 | 12.9 | 19.3 | 0.00 | 1.65 | 1.12 | 82 | 1009.4 |
| 20260506122022 | 10 | 3 | 11.3 | 19.3 | 0.00 | 1.65 | 1.12 | 85 | 1009.3 |
| 20260506121021 | 10 | 3 | 11.3 | 19.3 | 0.00 | 1.65 | 1.12 | 87 | 1009.3 |
| 20260506120056 | 10 | 350 | 9.7 | 19.3 | 0.00 | 1.65 | 1.12 | 89 | 1009.3 |
| 20260506114059 | 9 | 1 | 6.4 | 11.3 | 0.00 | 1.65 | 1.12 | 91 | 1009.4 |
| 20260506112100 | 10 | 357 | 11.3 | 19.3 | 0.00 | 1.65 | 1.12 | 91 | 1009.3 |
| 20260506105058 | 8 | 355 | 12.9 | 17.7 | 0.00 | 1.65 | 1.12 | 94 | 1009.5 |
| 20260506104052 | 8 | 355 | 12.9 | 19.3 | 0.03 | 1.65 | 1.12 | 95 | 1009.6 |
| 20260506103051 | 8 | 358 | 11.3 | 17.7 | 0.03 | 1.65 | 1.12 | 95 | 1009.5 |
| 20260506102100 | 8 | 4 | 11.3 | 20.9 | 0.05 | 1.65 | 1.12 | 96 | 1009.4 |
| 20260506101043 | 8 | 4 | 12.9 | 19.3 | 0.05 | 1.65 | 1.12 | 96 | 1009.3 |
| 20260506100051 | 8 | 8 | 11.3 | 19.3 | 0.05 | 1.65 | 1.12 | 97 | 1009.2 |
| 20260506095028 | 8 | 2 | 12.9 | 22.5 | 0.08 | 1.65 | 1.12 | 97 | 1009.1 |
| 20260506094058 | 8 | 2 | 12.9 | 22.5 | 0.10 | 1.65 | 1.12 | 97 | 1009.1 |
| 20260506093051 | 8 | 2 | 9.7 | 17.7 | 0.08 | 1.63 | 1.09 | 98 | 1009.0 |
| 20260506092055 | 7 | 7 | 11.3 | 17.7 | 0.08 | 1.63 | 1.09 | 98 | 1008.9 |
| 20260506091056 | 7 | 4 | 11.3 | 22.5 | 0.08 | 1.60 | 1.09 | 98 | 1008.9 |
| 20260506090101 | 8 | 357 | 11.3 | 19.3 | 0.10 | 1.63 | 1.09 | 98 | 1008.8 |
| 20260506085059 | 7 | 359 | 12.9 | 19.3 | 0.10 | 1.60 | 1.07 | 98 | 1008.7 |
| 20260506084053 | 7 | 357 | 12.9 | 22.5 | 0.08 | 1.57 | 1.04 | 98 | 1008.6 |
| 20260506083051 | 7 | 352 | 14.5 | 22.5 | 0.05 | 1.55 | 1.02 | 98 | 1008.5 |
| 20260506082023 | 7 | 352 | 12.9 | 17.7 | 0.08 | 1.55 | 1.02 | 98 | 1008.5 |
| 20260506073056 | 7 | 346 | 14.5 | 19.3 | 0.05 | 1.50 | 0.97 | 98 | 1008.2 |
| 20260506072054 | 7 | 349 | 14.5 | 20.9 | 0.05 | 1.50 | 0.97 | 98 | 1008.1 |
| 20260506071057 | 7 | 346 | 14.5 | 19.3 | 0.05 | 1.47 | 0.94 | 98 | 1008.1 |